Location: Arrington
(35.8681°N, 86.7092°W)
Time: 13:27:31
(UTC+00:00)

Lacrosse 5 rocket - Pass Details

Date: 23 November 2019
Orbit: 460 x 637 km, 57.0° (Epoch: 09 December)

Event Time Altitude Azimuth Distance (km) Brightness Sun altitude
Exits shadow 11:02:54 15° 353° (N) 1,325 3.1 -17.7°
Maximum altitude 11:05:05 26° 42° (NE) 941 2.8 -17.2°
Drops below altitude 10° 11:08:08 10° 101° (E) 1,606 5.0 -16.6°
Sets 11:10:31 0° 114° (ESE) 2,488 6.4 -16.2°
